Location: Fredericton
(45.9636°N, 66.6431°W)
Time: 07:13:17
(UTC-03:00)

Envisat - Pass Details

Date: 24 January 2022
Orbit: 764 x 765 km, 98.2° (Epoch: 17 May)

Event Time Altitude Azimuth Distance (km) Brightness Sun altitude
Rises 17:50:39 0° 214° (SW) 3,217 7.3 -5.6°
Reaches altitude 10° 17:53:59 10° 237° (WSW) 2,298 7.2 -6.1°
Maximum altitude 17:56:48 15° 272° (W) 1,984 6.4 -6.6°
Drops below altitude 10° 17:59:38 10° 306° (NW) 2,307 6.0 -7.1°
Sets 18:03:01 0° 329° (NNW) 3,239 6.4 -7.6°
